Weather History for GMME - October, 2012

Change the Weather History Date:

Tuesday, October 9, 2012

  Actual Average Record
Temperature  
Mean Temperature 70 °F -  
Max Temperature 78 °F 71 °F 91 °F (2007)
Min Temperature 61 °F 55 °F 48 °F (1998)
Cooling Degree Days 4    
Growing Degree Days 20 (Base 50)    
Moisture  
Dew Point 64 °F    
Average Humidity 85    
Maximum Humidity 100    
Minimum Humidity 56    
Precipitation  
Precipitation 0.00 in 0.08 in - ()
Sea Level Pressure  
Sea Level Pressure 30.03 in    
Wind  
Wind Speed 2 mph ()    
Max Wind Speed 10 mph    
Max Gust Speed -    
Visibility 1.7 miles    
Events Fog    
Averages and records for this station are not official NWS values.
T = Trace of Precipitation, MM = Missing Value Source: Averaged Metar Reports

Daily Weather History Graph

Daily Weather History Graph

Search for Another Location

Airport or City:

Trip Planner

Search our weather history database for the weather conditions in past years. The results will help you decide how hot, cold, wet, or windy it might be!

Date:

Astronomy

Oct. 09, 2012 Rise Set
Actual Time 6:27 AM WET 6:00 PM WET
Civil Twilight 6:02 AM WET 6:25 PM WET
Nautical Twilight 5:33 AM WET 6:54 PM WET
Astronomical Twilight 5:04 AM WET 7:23 PM WET
Moon 12:07 AM WET (10/9) 2:04 PM WET (10/9)
Length of Visible Light 12h 22m
Length of Day
11h 32m
Last Quarter, 38% of the Moon is Illuminated
Oct 9
Last Quarter
Oct 15
New
Oct 22
First Quarter
Oct 29
Full
Nov 7
Last Quarter

Hourly Weather History & Observations

Time (WET) Temp. Dew Point Humidity Pressure Visibility Wind Dir Wind Speed Gust Speed Precip Events Conditions
12:00 AM 68.0 °F 66.2 °F 94% 30.06 in 0.4 mi Calm Calm - N/A Fog Fog
12:30 AM 68.0 °F 66.2 °F 94% 30.06 in 1.0 mi Calm Calm - N/A   Mostly Cloudy
1:00 AM 68.0 °F 66.2 °F 94% 30.06 in 1.0 mi Calm Calm - N/A   Mostly Cloudy
1:30 AM 66.2 °F 64.4 °F 94% 30.04 in 0.5 mi Calm Calm - N/A Fog Fog
2:00 AM 66.2 °F 64.4 °F 94% 30.04 in 0.5 mi Calm Calm - N/A Fog Fog
2:30 AM 66.2 °F 64.4 °F 94% 30.04 in 0.1 mi Calm Calm - N/A Fog Fog
3:00 AM 65 °F 64 °F 95% 30.05 in 0 mi Calm Calm - - Fog Partial Fog
3:00 AM 66.2 °F 64.4 °F 94% 30.04 in 0.1 mi Calm Calm - N/A Fog Fog
3:30 AM 64.4 °F 62.6 °F 94% 30.04 in 0.1 mi Calm Calm - N/A Fog Fog
4:00 AM 64.4 °F 62.6 °F 94% 30.04 in 0.1 mi Calm Calm - N/A Fog Fog
4:30 AM 62.6 °F 62.6 °F 100% 30.04 in 0.1 mi Calm Calm - N/A Fog Fog
5:00 AM 62.6 °F 62.6 °F 100% 30.04 in - Calm Calm - N/A   Unknown
5:30 AM 62.6 °F 62.6 °F 100% 30.04 in 0.1 mi Calm Calm - N/A Fog Fog
6:00 AM 64 °F 63 °F 94% 30.04 in 0 mi Calm Calm - - Fog Partial Fog
6:00 AM 64.4 °F 62.6 °F 94% 30.04 in 0.1 mi Calm Calm - N/A Fog Fog
7:00 AM 64.4 °F 62.6 °F 94% 30.04 in 0.1 mi Calm Calm - N/A Fog Fog
7:30 AM 64.4 °F 62.6 °F 94% 30.06 in 0.1 mi Calm Calm - N/A Fog Fog
8:28 AM 66.2 °F 64.4 °F 94% 30.06 in 0.6 mi Calm Calm - N/A   Mostly Cloudy
8:30 AM 66.2 °F 64.4 °F 94% 30.06 in 0.6 mi Calm Calm - N/A   Mostly Cloudy
9:00 AM 67 °F 66 °F 96% 30.08 in 1 mi Calm Calm - -   Mist
9:00 AM 68.0 °F 66.2 °F 94% 30.06 in 0.6 mi Calm Calm - N/A   Mostly Cloudy
9:30 AM 69.8 °F 68.0 °F 94% 30.06 in 0.8 mi Calm Calm - N/A   Scattered Clouds
10:00 AM 73.4 °F 68.0 °F 83% 30.06 in 2.5 mi Variable 2.3 mph - N/A   Partly Cloudy
11:00 AM 73.4 °F 64.4 °F 73% 30.06 in 1.2 mi NW 6.9 mph - N/A   Partly Cloudy
12:00 PM 76 °F 65 °F 61% 30.04 in 2 mi NNW 6.9 mph - -   Mist
12:00 PM 77.0 °F 64.4 °F 65% 30.04 in 1.9 mi NNW 6.9 mph - N/A   Clear
12:30 PM 77.0 °F 64.4 °F 65% 30.04 in 2.5 mi North 8.1 mph - N/A   Clear
1:00 PM 78.8 °F 64.4 °F 61% 30.01 in 2.5 mi North 8.1 mph - N/A   Clear
1:30 PM 78.8 °F 62.6 °F 57% 30.01 in 2.5 mi North 8.1 mph - N/A   Clear
1:43 PM 78.8 °F 62.6 °F 57% 30.01 in 3.1 mi North 9.2 mph - N/A   Clear
2:00 PM 78.8 °F 62.6 °F 57% 30.01 in 3.1 mi North 9.2 mph - N/A   Clear
2:30 PM 77.0 °F 64.4 °F 65% 29.98 in 3.1 mi NNW 10.4 mph - N/A   Clear
3:00 PM 78 °F 65 °F 56% 29.98 in 3 mi North 10.4 mph - -  
3:00 PM 77.0 °F 64.4 °F 65% 29.98 in 3.1 mi North 10.4 mph - N/A   Clear
3:30 PM 77.0 °F 66.2 °F 69% 29.98 in 3.1 mi North 10.4 mph - N/A   Clear
4:00 PM 77.0 °F 68.0 °F 74% 29.98 in 3.1 mi North 9.2 mph - N/A   Clear
4:30 PM 75.2 °F 66.2 °F 73% 29.98 in 3.7 mi North 10.4 mph - N/A   Partly Cloudy
5:00 PM 75.2 °F 66.2 °F 73% 29.98 in 3.7 mi North 9.2 mph - N/A   Partly Cloudy
5:30 PM 73.4 °F 66.2 °F 78% 29.98 in 3.7 mi North 8.1 mph - N/A   Partly Cloudy
7:00 PM 69.8 °F 66.2 °F 88% 30.01 in 1.9 mi Calm Calm - N/A   Scattered Clouds
7:30 PM 68.0 °F 66.2 °F 94% 30.01 in 1.9 mi Calm Calm - N/A   Scattered Clouds
7:55 PM 68.0 °F 66.2 °F 94% 30.04 in 3.1 mi Calm Calm - N/A   Scattered Clouds
8:00 PM 68.0 °F 64.4 °F 88% 30.04 in 3.1 mi Calm Calm - N/A   Scattered Clouds
8:30 PM 64.4 °F 62.6 °F 94% 30.04 in 3.1 mi Calm Calm - N/A   Scattered Clouds
9:00 PM 63 °F 61 °F 92% 30.04 in 3 mi Calm Calm - -   Scattered Clouds
9:00 PM 62.6 °F 60.8 °F 94% 30.04 in 0.7 mi Calm Calm - N/A   Scattered Clouds
9:30 PM 66.2 °F 64.4 °F 94% 30.04 in 2.5 mi Calm Calm - N/A   Scattered Clouds
10:00 PM 64.4 °F 62.6 °F 94% 30.04 in 2.5 mi Calm Calm - N/A   Scattered Clouds
10:30 PM 62.6 °F 60.8 °F 94% 30.04 in 2.5 mi Calm Calm - N/A   Scattered Clouds
11:00 PM 62.6 °F 60.8 °F 94% 30.01 in 2.5 mi Calm Calm - N/A   Scattered Clouds
11:30 PM 64.4 °F 62.6 °F 94% 30.01 in 2.5 mi Calm Calm - N/A   Scattered Clouds